Showing default

IRIDIUM 116, 43072

Orbit data source: Space-Track

IRIDIUM 116, 43072 is a payload satellite owned by Iridium (US) in LEO that was launched on Sat, 23 Dec 2017 UTC via an FALCON 9 launch vehicle from the Air Force Western Test Range (AFWTR). Payload-class satellites include a variety of spacecraft equipped with specific instruments for various scientific and technological missions. These include communications satellites like Starlink; space stations such as the ISS; scientific satellites like the Hubble; Earth observation satellites from companies like Planet Labs, Umbra, and HawkEye 360; GPS; miniature CubeSats for education and research; and military/defense satellites.

Loading next visibility...
Identifier
43072, 2017-083C
Orbit
LEO
Country
Flag of USUS
Related business
Manufacturer
OATK SSG Gilbert
Mission
Operational Commercial Communications
Bus & Motor
ELITEBUS, Unknown motor
Mass
860 kg wet, 700 kg dry
Launch date (UTC)
2017-12-23 (8 years ago)
Launch vehicle
FALCON 9
Launch site
Air Force Western Test Range (AFWTR)
Object type
Payload
Rocket body
Debris
Shape & HBR
Trap Box + 2 Pan, 4.8 m
Radar Cross Section
10.154 m², Large (>1 m²)

Expand to show TLE details & history
Last TLE update: 13 hours ago

TLE from 13 hours ago
0 IRIDIUM 116
1 43072U 17083C   25309.74642483  .00000317  00000-0  10597-3 0  9998
2 43072  86.3976  55.3932 0001890 102.6889 257.4519 14.34218571412147
Epoch: 2025-11-05T17:54Z
TLE epoch observation values (Epoch: 2025-11-05T17:54:51.105Z)
Latitude
0.00007°
Longitude
101.4656°
Altitude
781.009 km
Speed
7.463 km/s
True Right ascension
03h 41m 34s
True Declination
0° 00' 00"
Sunlit
Object was in full shadow at epoch
Visualization orbit readout
Latitude
Unknown
Longitude
Unknown
Altitude
Unknown
Speed
Unknown
Apparent Right ascension
Unknown
Apparent Declination
Unknown
Sunlit
N/A
Visualization observer readout
Local Sidereal Time
02:50:49
Azimuth
Unknown
Elevation
Unknown
Doppler factor
Unknown
Orbital elements
Apogee altitude
775.981 km
Perigee altitude
773.277 km
Semi-major axis
7,152.766 km
Eccentricity
0.00019
Inclination
86.3976°
RAAN
55.3932°
Arg. of periapsis
102.6889°
True anomaly
257.43076°
Mean anomaly
257.4519°
Eccentric anomaly
257.44133°
Mean motion
3.58783 °/min
Orbital period
100.34 mins
BSTAR
0.00010597
Loading maneuver chart data...
Computing Atmospheric mass density...
Loading historical data...
Loading historical data...
Loading historical data...
Loading historical data...
Loading historical data...
Loading historical data...
Loading historical data...

Documentation

Showing up to 5 results
|